Lambertville, MI

5:48 AM EST on January 19, 2018 (GMT -0500)
Lambertville

Weather History for KDUH - April, 2014

Change the Weather History Date:

Wednesday, April 2, 2014

  Actual Average (KTOL) Record (KTOL)
Temperature  
Mean Temperature 44 °F -  
Max Temperature 53 °F 52 °F 82 °F (1963)
Min Temperature 35 °F 33 °F 19 °F (1881)
Degree Days  
Heating Degree Days 21    
Moisture  
Dew Point 30 °F    
Average Humidity 55    
Maximum Humidity 70    
Minimum Humidity 35    
Precipitation  
Precipitation 0.00 in - - ()
Sea Level Pressure  
Sea Level Pressure 30.13 in    
Wind  
Wind Speed 3 mph (NNW)    
Max Wind Speed 9 mph    
Max Gust Speed -    
Visibility 10 miles    
Events      
Averages and records for this station are not official NWS values.
T = Trace of Precipitation, MM = Missing Value Source: NWS Daily Summary

Daily Weather History Graph

Daily Weather History Graph

Search for Another Location

Airport or City:

Trip Planner

Search our weather history database for the weather conditions in past years. The results will help you decide how hot, cold, wet, or windy it might be!

Date:

Astronomy

Apr. 02, 2014 Rise Set
Actual Time 7:15 AM EDT 8:01 PM EDT
Civil Twilight 6:47 AM EDT 8:29 PM EDT
Nautical Twilight 6:14 AM EDT 9:02 PM EDT
Astronomical Twilight 5:40 AM EDT 9:37 PM EDT
Moon 8:57 AM EDT (4/2) 11:25 PM EDT (4/2)
Length of Visible Light 13h 41m
Length of Day
12h 45m
Waxing Crescent, 10% of the Moon is Illuminated
Apr 2
Waxing Crescent
Apr 7
First Quarter
Apr 15
Full
Apr 22
Last Quarter
Apr 29
New

Hourly Weather History & Observations

Time (EDT) Temp. Windchill Dew Point Humidity Pressure Visibility Wind Dir Wind Speed Gust Speed Precip Events Conditions
12:15 AM 42.8 °F 40.1 °F 30.2 °F 61% 30.05 in 10.0 mi West 4.6 mph - N/A   Clear
12:35 AM 41.0 °F 36.4 °F 32.0 °F 70% 30.06 in 10.0 mi West 6.9 mph - N/A   Clear
12:55 AM 41.0 °F 37.1 °F 30.2 °F 65% 30.06 in 10.0 mi West 5.8 mph - N/A   Clear
1:15 AM 42.8 °F 39.3 °F 30.2 °F 61% 30.07 in 10.0 mi WSW 5.8 mph - N/A   Clear
1:35 AM 42.8 °F 39.3 °F 30.2 °F 61% 30.07 in 10.0 mi WSW 5.8 mph - N/A   Mostly Cloudy
1:55 AM 42.8 °F 39.3 °F 32.0 °F 66% 30.07 in 10.0 mi WSW 5.8 mph - N/A   Overcast
2:15 AM 42.8 °F 41.1 °F 30.2 °F 61% 30.07 in 10.0 mi West 3.5 mph - N/A   Overcast
2:35 AM 42.8 °F 39.3 °F 30.2 °F 61% 30.08 in 10.0 mi West 5.8 mph - N/A   Overcast
2:55 AM 42.8 °F 39.3 °F 30.2 °F 61% 30.08 in 10.0 mi WSW 5.8 mph - N/A   Overcast
3:15 AM 42.8 °F 40.1 °F 30.2 °F 61% 30.07 in 10.0 mi West 4.6 mph - N/A   Mostly Cloudy
3:35 AM 42.8 °F 41.1 °F 30.2 °F 61% 30.07 in 10.0 mi WNW 3.5 mph - N/A   Mostly Cloudy
3:55 AM 42.8 °F - 30.2 °F 61% 30.08 in 10.0 mi Calm Calm - N/A   Overcast
4:15 AM 42.8 °F - 30.2 °F 61% 30.09 in 10.0 mi Calm Calm - N/A   Overcast
4:35 AM 41.0 °F - 30.2 °F 65% 30.09 in 10.0 mi Calm Calm - N/A   Overcast
4:55 AM 41.0 °F - 30.2 °F 65% 30.09 in 10.0 mi Calm Calm - N/A   Mostly Cloudy
5:15 AM 39.2 °F - 30.2 °F 70% 30.09 in 10.0 mi Calm Calm - N/A   Mostly Cloudy
5:35 AM 39.2 °F - 30.2 °F 70% 30.10 in 10.0 mi Calm Calm - N/A   Scattered Clouds
5:55 AM 41.0 °F - 30.2 °F 65% 30.11 in 10.0 mi Calm Calm - N/A   Mostly Cloudy
6:15 AM 39.2 °F - 28.4 °F 65% 30.11 in 10.0 mi Calm Calm - N/A   Scattered Clouds
6:35 AM 37.4 °F - 28.4 °F 70% 30.12 in 10.0 mi Calm Calm - N/A   Clear
6:55 AM 37.4 °F - 26.6 °F 65% 30.13 in 10.0 mi Calm Calm - N/A   Clear
7:15 AM 35.6 °F - 26.6 °F 70% 30.14 in 10.0 mi Calm Calm - N/A   Clear
8:55 AM 37.4 °F 34.9 °F 28.4 °F 70% 30.17 in 10.0 mi North 3.5 mph - N/A   Clear
9:15 AM 41.0 °F 39.0 °F 28.4 °F 61% 30.17 in 10.0 mi North 3.5 mph - N/A   Clear
9:35 AM 41.0 °F - 26.6 °F 57% 30.16 in 10.0 mi Calm Calm - N/A   Clear
9:55 AM 41.0 °F - 26.6 °F 57% 30.16 in 10.0 mi Calm Calm - N/A   Clear
10:15 AM 42.8 °F - 26.6 °F 53% 30.17 in 10.0 mi Calm Calm - N/A   Clear
10:35 AM 42.8 °F - 28.4 °F 57% 30.18 in 10.0 mi Calm Calm - N/A   Clear
10:55 AM 42.8 °F - 28.4 °F 57% 30.18 in 10.0 mi Calm Calm - N/A   Clear
11:15 AM 44.6 °F 42.2 °F 28.4 °F 53% 30.18 in 10.0 mi North 4.6 mph - N/A   Clear
11:35 AM 44.6 °F - 28.4 °F 53% 30.17 in 10.0 mi Calm Calm - N/A   Clear
11:55 AM 46.4 °F - 28.4 °F 50% 30.17 in 10.0 mi Calm Calm - N/A   Clear
12:15 PM 48.2 °F - 28.4 °F 46% 30.17 in 10.0 mi Calm Calm - N/A   Clear
12:35 PM 50.0 °F - 30.2 °F 47% 30.16 in 10.0 mi Calm Calm - N/A   Clear
12:55 PM 51.8 °F - 30.2 °F 44% 30.16 in 10.0 mi Calm Calm - N/A   Clear
1:15 PM 51.8 °F - 30.2 °F 44% 30.16 in 10.0 mi WNW 4.6 mph - N/A   Clear
1:55 PM 53.6 °F - 30.2 °F 41% 30.15 in 10.0 mi WSW 4.6 mph - N/A   Clear
2:15 PM 53.6 °F - 30.2 °F 41% 30.15 in 10.0 mi WNW 9.2 mph - N/A   Clear
2:35 PM 53.6 °F - 30.2 °F 41% 30.15 in 10.0 mi NW 5.8 mph - N/A   Clear
2:55 PM 51.8 °F - 30.2 °F 44% 30.15 in 10.0 mi Calm Calm - N/A   Clear
3:15 PM 51.8 °F - 30.2 °F 44% 30.15 in 10.0 mi NW 4.6 mph - N/A   Clear
3:35 PM 51.8 °F - 30.2 °F 44% 30.14 in 10.0 mi NW 4.6 mph - N/A   Clear
3:55 PM 53.6 °F - 30.2 °F 41% 30.14 in 10.0 mi North 5.8 mph - N/A   Clear
4:15 PM 53.6 °F - 30.2 °F 41% 30.14 in 10.0 mi Calm Calm - N/A   Clear
4:35 PM 53.6 °F - 30.2 °F 41% 30.13 in 10.0 mi Calm Calm - N/A   Clear
4:55 PM 53.6 °F - 30.2 °F 41% 30.13 in 10.0 mi NW 3.5 mph - N/A   Clear
5:15 PM 53.6 °F - 28.4 °F 38% 30.12 in 10.0 mi NNE 3.5 mph - N/A   Clear
5:35 PM 53.6 °F - 26.6 °F 35% 30.11 in 10.0 mi NNW 3.5 mph - N/A   Clear
5:55 PM 53.6 °F - 32.0 °F 44% 30.12 in 10.0 mi ESE 5.8 mph - N/A   Clear
6:15 PM 51.8 °F - 32.0 °F 47% 30.13 in 10.0 mi East 5.8 mph - N/A   Clear
6:35 PM 51.8 °F - 32.0 °F 47% 30.12 in 10.0 mi East 5.8 mph - N/A   Scattered Clouds
6:55 PM 51.8 °F - 32.0 °F 47% 30.12 in 10.0 mi East 5.8 mph - N/A   Overcast
7:15 PM 50.0 °F - 32.0 °F 50% 30.13 in 10.0 mi East 3.5 mph - N/A   Mostly Cloudy
7:35 PM 50.0 °F - 32.0 °F 50% 30.13 in 10.0 mi East 3.5 mph - N/A   Overcast
7:55 PM 50.0 °F - 32.0 °F 50% 30.13 in 10.0 mi Calm Calm - N/A   Overcast
8:15 PM 48.2 °F - 32.0 °F 54% 30.14 in 10.0 mi Calm Calm - N/A   Overcast
8:35 PM 48.2 °F - 32.0 °F 54% 30.14 in 10.0 mi Calm Calm - N/A   Overcast
8:55 PM 48.2 °F - 32.0 °F 54% 30.14 in 10.0 mi Calm Calm - N/A   Overcast
9:15 PM 48.2 °F - 32.0 °F 54% 30.14 in 10.0 mi East 5.8 mph - N/A   Overcast
9:35 PM 46.4 °F 45.2 °F 32.0 °F 57% 30.15 in 10.0 mi ENE 3.5 mph - N/A   Overcast
9:55 PM 46.4 °F 44.3 °F 32.0 °F 57% 30.15 in 10.0 mi ENE 4.6 mph - N/A   Overcast
10:15 PM 44.6 °F 42.2 °F 32.0 °F 61% 30.15 in 10.0 mi ENE 4.6 mph - N/A   Overcast
10:35 PM 44.6 °F 40.7 °F 32.0 °F 61% 30.15 in 10.0 mi East 6.9 mph - N/A   Overcast
10:55 PM 44.6 °F 40.7 °F 32.0 °F 61% 30.15 in 10.0 mi East 6.9 mph - N/A   Overcast
11:15 PM 42.8 °F 38.6 °F 32.0 °F 66% 30.15 in 10.0 mi East 6.9 mph - N/A   Overcast
11:35 PM 42.8 °F 39.3 °F 32.0 °F 66% 30.16 in 10.0 mi East 5.8 mph - N/A   Overcast